Time,TemperatureF,DewpointF,PressureIn,WindDirection,WindDirectionDegrees,WindSpeedMPH,WindSpeedGustMPH,Humidity,HourlyPrecipIn,Conditions,Clouds,dailyrainin,SoftwareType,DateUTC
2013-10-16 00:01:00,23.9,22.5,31.73,East,90,5.0,9.0,94,0.00,,,0.00,meteohub,2013-10-16 06:01:00,
2013-10-16 00:06:00,23.9,22.5,31.73,East,90,5.0,8.0,94,0.00,,,0.00,meteohub,2013-10-16 06:06:00,
2013-10-16 00:11:00,23.7,22.3,31.72,East,90,9.0,9.0,94,0.00,,,0.00,meteohub,2013-10-16 06:11:00,
2013-10-16 00:16:00,23.7,22.3,31.72,East,90,4.0,11.0,94,0.00,,,0.00,meteohub,2013-10-16 06:16:00,
2013-10-16 00:22:00,23.7,22.3,31.73,South,180,8.0,11.0,94,0.00,,,0.00,meteohub,2013-10-16 06:22:00,
2013-10-16 00:27:00,23.5,22.1,31.73,SE,135,8.0,11.0,94,0.00,,,0.00,meteohub,2013-10-16 06:27:00,
2013-10-16 00:32:00,23.5,21.7,31.72,SE,135,8.0,10.0,93,0.00,,,0.00,meteohub,2013-10-16 06:32:00,
2013-10-16 00:37:00,23.7,21.9,31.73,SE,135,6.0,10.0,93,0.00,,,0.00,meteohub,2013-10-16 06:37:00,
2013-10-16 00:42:00,23.7,21.9,31.73,SE,135,3.0,9.0,93,0.00,,,0.00,meteohub,2013-10-16 06:42:00,
2013-10-16 00:47:00,23.7,21.9,31.73,South,180,3.0,9.0,93,0.00,,,0.00,meteohub,2013-10-16 06:47:00,
2013-10-16 00:52:00,23.7,21.9,31.73,South,180,6.0,8.0,93,0.00,,,0.00,meteohub,2013-10-16 06:52:00,
2013-10-16 00:57:00,23.7,21.9,31.73,SE,135,4.0,11.0,93,0.00,,,0.00,meteohub,2013-10-16 06:57:00,
2013-10-16 01:02:00,23.7,21.9,31.73,SE,135,4.0,11.0,93,0.00,,,0.00,meteohub,2013-10-16 07:02:00,
2013-10-16 01:07:00,23.5,21.7,31.73,South,180,8.0,11.0,93,0.00,,,0.00,meteohub,2013-10-16 07:07:00,
2013-10-16 01:12:00,23.5,21.7,31.73,East,90,5.0,8.0,93,0.00,,,0.00,meteohub,2013-10-16 07:12:00,
2013-10-16 01:17:00,23.5,21.7,31.73,East,90,3.0,8.0,93,0.00,,,0.00,meteohub,2013-10-16 07:17:00,
2013-10-16 01:22:00,23.7,21.9,31.73,SSW,203,5.0,8.0,93,0.00,,,0.00,meteohub,2013-10-16 07:22:00,
2013-10-16 01:27:00,23.7,21.9,31.73,SE,135,4.0,6.0,93,0.00,,,0.00,meteohub,2013-10-16 07:27:00,
2013-10-16 01:32:00,23.5,21.7,31.73,SW,225,5.0,7.0,93,0.00,,,0.00,meteohub,2013-10-16 07:32:00,
2013-10-16 01:37:00,23.5,21.7,31.73,SE,135,4.0,7.0,93,0.00,,,0.00,meteohub,2013-10-16 07:37:00,
2013-10-16 01:42:00,23.5,21.7,31.73,East,90,4.0,7.0,93,0.00,,,0.00,meteohub,2013-10-16 07:42:00,
2013-10-16 01:47:00,23.5,21.7,31.73,SE,135,5.0,7.0,93,0.00,,,0.00,meteohub,2013-10-16 07:47:00,
2013-10-16 01:52:00,23.5,21.7,31.73,SW,225,4.0,9.0,93,0.00,,,0.00,meteohub,2013-10-16 07:52:00,
2013-10-16 01:57:00,23.5,21.7,31.72,East,90,6.0,9.0,93,0.00,,,0.00,meteohub,2013-10-16 07:57:00,
2013-10-16 02:02:00,23.5,21.7,31.72,SE,135,5.0,8.0,93,0.00,,,0.00,meteohub,2013-10-16 08:02:00,
2013-10-16 02:07:00,23.5,21.7,31.72,SE,135,5.0,8.0,93,0.00,,,0.00,meteohub,2013-10-16 08:07:00,
2013-10-16 02:12:00,23.5,21.7,31.72,SSW,203,5.0,8.0,93,0.00,,,0.00,meteohub,2013-10-16 08:12:00,
2013-10-16 02:17:00,23.5,21.7,31.72,South,180,2.0,5.0,93,0.00,,,0.00,meteohub,2013-10-16 08:17:00,
2013-10-16 02:22:00,23.5,21.7,31.72,SE,135,4.0,5.0,93,0.00,,,0.00,meteohub,2013-10-16 08:22:00,
2013-10-16 02:27:00,23.5,21.7,31.73,East,90,4.0,5.0,93,0.00,,,0.00,meteohub,2013-10-16 08:27:00,
2013-10-16 02:32:00,23.5,21.7,31.72,South,180,4.0,6.0,93,0.00,,,0.00,meteohub,2013-10-16 08:32:00,
2013-10-16 02:37:00,23.5,21.7,31.72,SE,135,5.0,6.0,93,0.00,,,0.00,meteohub,2013-10-16 08:37:00,
2013-10-16 02:42:00,23.5,21.7,31.72,SE,135,5.0,6.0,93,0.00,,,0.00,meteohub,2013-10-16 08:42:00,
2013-10-16 02:47:00,23.5,21.6,31.73,East,90,3.0,8.0,92,0.00,,,0.00,meteohub,2013-10-16 08:47:00,
2013-10-16 02:52:00,23.5,21.6,31.72,SSE,158,9.0,9.0,92,0.00,,,0.00,meteohub,2013-10-16 08:52:00,
2013-10-16 02:57:00,23.4,21.4,31.72,East,90,5.0,9.0,92,0.00,,,0.00,meteohub,2013-10-16 08:57:00,
2013-10-16 03:02:00,23.4,21.4,31.72,South,180,6.0,9.0,92,0.00,,,0.00,meteohub,2013-10-16 09:02:00,
2013-10-16 03:07:00,23.4,21.4,31.72,ESE,113,4.0,9.0,92,0.00,,,0.00,meteohub,2013-10-16 09:07:00,
2013-10-16 03:12:00,23.4,21.4,31.71,SE,135,3.0,8.0,92,0.00,,,0.00,meteohub,2013-10-16 09:12:00,
2013-10-16 03:17:00,23.4,21.4,31.71,SE,135,2.0,8.0,92,0.00,,,0.00,meteohub,2013-10-16 09:17:00,
2013-10-16 03:22:00,23.4,21.4,31.71,SE,135,4.0,7.0,92,0.00,,,0.00,meteohub,2013-10-16 09:22:00,
2013-10-16 03:27:00,23.4,21.4,31.71,SW,225,5.0,7.0,92,0.00,,,0.00,meteohub,2013-10-16 09:27:00,
2013-10-16 03:32:00,23.4,21.4,31.71,East,90,4.0,7.0,92,0.00,,,0.00,meteohub,2013-10-16 09:32:00,
2013-10-16 03:37:00,23.4,21.4,31.71,SE,135,2.0,8.0,92,0.00,,,0.00,meteohub,2013-10-16 09:37:00,
2013-10-16 03:42:00,23.4,21.4,31.71,SW,225,4.0,8.0,92,0.00,,,0.00,meteohub,2013-10-16 09:42:00,
2013-10-16 03:47:00,23.4,21.4,31.71,SE,135,4.0,5.0,92,0.00,,,0.00,meteohub,2013-10-16 09:47:00,
2013-10-16 03:52:00,23.4,21.2,31.71,SE,135,2.0,4.0,91,0.00,,,0.00,meteohub,2013-10-16 09:52:00,
2013-10-16 03:57:00,23.4,21.2,31.71,East,90,2.0,4.0,91,0.00,,,0.00,meteohub,2013-10-16 09:57:00,
2013-10-16 04:02:00,23.4,21.2,31.71,NE,45,1.0,4.0,91,0.00,,,0.00,meteohub,2013-10-16 10:02:00,
2013-10-16 04:07:00,23.4,21.2,31.71,NE,45,1.0,4.0,91,0.00,,,0.00,meteohub,2013-10-16 10:07:00,
2013-10-16 04:12:00,23.5,21.4,31.71,East,90,0.0,4.0,91,0.00,,,0.00,meteohub,2013-10-16 10:12:00,
2013-10-16 04:17:00,23.5,21.4,31.71,SW,225,1.0,1.0,91,0.00,,,0.00,meteohub,2013-10-16 10:17:00,
2013-10-16 04:22:00,23.5,21.4,31.70,SE,135,2.0,2.0,91,0.00,,,0.00,meteohub,2013-10-16 10:22:00,
2013-10-16 04:27:00,23.5,21.4,31.70,South,180,3.0,3.0,91,0.00,,,0.00,meteohub,2013-10-16 10:27:00,
2013-10-16 04:32:00,23.4,21.2,31.70,South,180,2.0,4.0,91,0.00,,,0.00,meteohub,2013-10-16 10:32:00,
2013-10-16 04:37:00,23.2,21.0,31.70,NE,45,3.0,4.0,91,0.00,,,0.00,meteohub,2013-10-16 10:37:00,
2013-10-16 04:42:00,23.0,20.5,31.70,SE,135,2.0,4.0,90,0.00,,,0.00,meteohub,2013-10-16 10:42:00,
2013-10-16 04:47:00,22.6,20.5,31.70,South,180,2.0,4.0,91,0.00,,,0.00,meteohub,2013-10-16 10:47:00,
2013-10-16 04:52:00,22.5,20.3,31.70,SE,135,2.0,4.0,91,0.00,,,0.00,meteohub,2013-10-16 10:52:00,
2013-10-16 04:57:00,22.3,20.1,31.70,South,180,2.0,4.0,91,0.00,,,0.00,meteohub,2013-10-16 10:57:00,
2013-10-16 05:02:00,22.1,19.9,31.70,South,180,1.0,4.0,91,0.00,,,0.00,meteohub,2013-10-16 11:02:00,
2013-10-16 05:07:00,21.9,19.8,31.70,SE,135,2.0,2.0,91,0.00,,,0.00,meteohub,2013-10-16 11:07:00,
2013-10-16 05:12:00,21.7,19.2,31.70,SW,225,2.0,2.0,90,0.00,,,0.00,meteohub,2013-10-16 11:12:00,
2013-10-16 05:17:00,21.7,19.2,31.70,West,270,1.0,2.0,90,0.00,,,0.00,meteohub,2013-10-16 11:17:00,
2013-10-16 05:22:00,21.7,19.2,31.70,SE,135,1.0,2.0,90,0.00,,,0.00,meteohub,2013-10-16 11:22:00,
2013-10-16 05:27:00,21.6,19.0,31.70,West,270,1.0,2.0,90,0.00,,,0.00,meteohub,2013-10-16 11:27:00,
2013-10-16 05:32:00,21.6,19.0,31.70,West,270,0.0,2.0,90,0.00,,,0.00,meteohub,2013-10-16 11:32:00,
2013-10-16 05:37:00,21.6,19.0,31.70,South,180,0.0,2.0,90,0.00,,,0.00,meteohub,2013-10-16 11:37:00,
2013-10-16 05:42:00,21.6,19.0,31.70,SW,225,0.0,2.0,90,0.00,,,0.00,meteohub,2013-10-16 11:42:00,
2013-10-16 05:47:00,21.6,19.0,31.70,West,270,1.0,2.0,90,0.00,,,0.00,meteohub,2013-10-16 11:47:00,
2013-10-16 05:52:00,21.9,19.8,31.70,SW,225,0.0,2.0,91,0.00,,,0.00,meteohub,2013-10-16 11:52:00,
2013-10-16 05:57:00,22.1,19.9,31.70,SW,225,0.0,2.0,91,0.00,,,0.00,meteohub,2013-10-16 11:57:00,
2013-10-16 06:02:00,22.1,19.9,31.70,SW,225,0.0,1.0,91,0.00,,,0.00,meteohub,2013-10-16 12:02:00,
2013-10-16 06:07:00,22.1,19.9,31.70,SW,225,0.0,0.0,91,0.00,,,0.00,meteohub,2013-10-16 12:07:00,
2013-10-16 06:12:00,22.3,20.1,31.70,NW,315,0.0,1.0,91,0.00,,,0.00,meteohub,2013-10-16 12:12:00,
2013-10-16 06:17:00,22.3,20.1,31.70,East,90,0.0,1.0,91,0.00,,,0.00,meteohub,2013-10-16 12:17:00,
2013-10-16 06:22:00,22.5,20.3,31.70,East,90,0.0,1.0,91,0.00,,,0.00,meteohub,2013-10-16 12:22:00,
2013-10-16 06:27:00,22.5,20.3,31.70,NW,315,0.0,1.0,91,0.00,,,0.00,meteohub,2013-10-16 12:27:00,
2013-10-16 06:32:00,22.5,20.3,31.70,NW,315,1.0,1.0,91,0.00,,,0.00,meteohub,2013-10-16 12:32:00,
2013-10-16 06:37:00,22.6,20.5,31.70,North,0,2.0,2.0,91,0.00,,,0.00,meteohub,2013-10-16 12:37:00,
2013-10-16 06:42:00,22.6,20.5,31.70,NE,45,2.0,2.0,91,0.00,,,0.00,meteohub,2013-10-16 12:42:00,
2013-10-16 06:47:00,22.6,20.5,31.70,North,0,1.0,2.0,91,0.00,,,0.00,meteohub,2013-10-16 12:47:00,
2013-10-16 06:52:00,22.6,20.5,31.70,NE,45,1.0,2.0,91,0.00,,,0.00,meteohub,2013-10-16 12:52:00,
2013-10-16 06:57:00,22.5,20.3,31.70,NE,45,2.0,2.0,91,0.00,,,0.00,meteohub,2013-10-16 12:57:00,
2013-10-16 07:02:00,22.3,20.1,31.70,SW,225,1.0,2.0,91,0.00,,,0.00,meteohub,2013-10-16 13:02:00,
2013-10-16 07:07:00,22.3,20.1,31.70,SW,225,2.0,2.0,91,0.00,,,0.00,meteohub,2013-10-16 13:07:00,
2013-10-16 07:12:00,22.1,19.9,31.70,SW,225,1.0,2.0,91,0.00,,,0.00,meteohub,2013-10-16 13:12:00,
2013-10-16 07:17:00,21.9,19.8,31.71,West,270,1.0,2.0,91,0.00,,,0.00,meteohub,2013-10-16 13:17:00,
2013-10-16 07:22:00,21.7,19.6,31.71,NW,315,2.0,2.0,91,0.00,,,0.00,meteohub,2013-10-16 13:22:00,
2013-10-16 07:27:00,21.6,19.0,31.70,NW,315,1.0,2.0,90,0.00,,,0.00,meteohub,2013-10-16 13:27:00,
2013-10-16 07:32:00,21.4,18.9,31.70,West,270,2.0,2.0,90,0.00,,,0.00,meteohub,2013-10-16 13:32:00,
2013-10-16 07:37:00,21.2,18.7,31.71,West,270,1.0,2.0,90,0.00,,,0.00,meteohub,2013-10-16 13:37:00,
2013-10-16 07:42:00,21.2,18.7,31.71,West,270,2.0,2.0,90,0.00,,,0.00,meteohub,2013-10-16 13:42:00,
2013-10-16 07:47:00,21.2,18.7,31.71,West,270,1.0,2.0,90,0.00,,,0.00,meteohub,2013-10-16 13:47:00,
2013-10-16 07:52:00,21.2,18.7,31.71,West,270,2.0,2.0,90,0.00,,,0.00,meteohub,2013-10-16 13:52:00,
2013-10-16 07:57:00,21.2,18.7,31.71,WSW,248,2.0,2.0,90,0.00,,,0.00,meteohub,2013-10-16 13:57:00,
2013-10-16 08:02:00,21.2,18.7,31.71,West,270,2.0,3.0,90,0.00,,,0.00,meteohub,2013-10-16 14:02:00,
2013-10-16 08:07:00,21.2,18.7,31.72,West,270,2.0,3.0,90,0.00,,,0.00,meteohub,2013-10-16 14:07:00,
2013-10-16 08:12:00,21.4,18.9,31.71,NW,315,2.0,3.0,90,0.00,,,0.00,meteohub,2013-10-16 14:12:00,
2013-10-16 08:17:00,21.7,19.2,31.72,NW,315,2.0,2.0,90,0.00,,,0.00,meteohub,2013-10-16 14:17:00,
2013-10-16 08:22:00,22.1,19.6,31.72,NW,315,2.0,2.0,90,0.00,,,0.00,meteohub,2013-10-16 14:22:00,
2013-10-16 08:27:00,22.6,20.5,31.72,West,270,2.0,2.0,91,0.00,,,0.00,meteohub,2013-10-16 14:27:00,
2013-10-16 08:32:00,23.2,20.7,31.72,West,270,3.0,3.0,90,0.00,,,0.00,meteohub,2013-10-16 14:32:00,
2013-10-16 08:37:00,23.7,21.2,31.72,WSW,248,3.0,3.0,90,0.00,,,0.00,meteohub,2013-10-16 14:37:00,
2013-10-16 08:42:00,23.9,21.4,31.72,WSW,248,2.0,3.0,90,0.00,,,0.00,meteohub,2013-10-16 14:42:00,
2013-10-16 08:47:00,24.3,21.7,31.72,NW,315,2.0,3.0,90,0.00,,,0.00,meteohub,2013-10-16 14:47:00,
2013-10-16 08:52:00,24.4,21.7,31.72,NW,315,1.0,3.0,89,0.00,,,0.00,meteohub,2013-10-16 14:52:00,
2013-10-16 08:57:00,24.8,21.7,31.73,West,270,2.0,4.0,88,0.00,,,0.00,meteohub,2013-10-16 14:57:00,
2013-10-16 09:02:00,26.1,23.0,31.72,WNW,293,2.0,4.0,88,0.00,,,0.00,meteohub,2013-10-16 15:02:00,
2013-10-16 09:07:00,27.1,23.5,31.72,West,270,3.0,4.0,86,0.00,,,0.00,meteohub,2013-10-16 15:07:00,
2013-10-16 09:12:00,28.0,23.9,31.72,NW,315,2.0,4.0,84,0.00,,,0.00,meteohub,2013-10-16 15:12:00,
2013-10-16 09:17:00,29.1,25.7,31.72,North,0,4.0,4.0,87,0.00,,,0.00,meteohub,2013-10-16 15:17:00,
2013-10-16 09:22:00,30.0,26.4,31.72,SW,225,4.0,4.0,86,0.00,,,0.00,meteohub,2013-10-16 15:22:00,
2013-10-16 09:27:00,31.1,25.0,31.72,NE,45,4.0,5.0,78,0.00,,,0.00,meteohub,2013-10-16 15:27:00,
2013-10-16 09:32:00,30.9,21.6,31.73,West,270,3.0,6.0,68,0.00,,,0.00,meteohub,2013-10-16 15:32:00,
2013-10-16 09:37:00,31.3,19.8,31.72,NW,315,4.0,10.0,62,0.00,,,0.00,meteohub,2013-10-16 15:37:00,
2013-10-16 09:42:00,32.0,18.9,31.72,West,270,6.0,10.0,58,0.00,,,0.00,meteohub,2013-10-16 15:42:00,
2013-10-16 09:47:00,32.4,18.0,31.72,North,0,4.0,8.0,55,0.00,,,0.00,meteohub,2013-10-16 15:47:00,
2013-10-16 09:52:00,32.4,18.0,31.72,NW,315,8.0,11.0,55,0.00,,,0.00,meteohub,2013-10-16 15:52:00,
2013-10-16 09:57:00,32.9,18.5,31.71,NE,45,3.0,11.0,55,0.00,,,0.00,meteohub,2013-10-16 15:57:00,
2013-10-16 10:02:00,33.4,19.0,31.72,NW,315,8.0,11.0,55,0.00,,,0.00,meteohub,2013-10-16 16:02:00,
2013-10-16 10:07:00,33.4,19.0,31.72,NW,315,8.0,8.0,55,0.00,,,0.00,meteohub,2013-10-16 16:07:00,
2013-10-16 10:12:00,34.2,17.4,31.72,WSW,248,4.0,8.0,50,0.00,,,0.00,meteohub,2013-10-16 16:12:00,
2013-10-16 10:17:00,34.5,16.9,31.72,NW,315,8.0,8.0,48,0.00,,,0.00,meteohub,2013-10-16 16:17:00,
2013-10-16 10:22:00,34.5,16.3,31.72,NW,315,4.0,9.0,47,0.00,,,0.00,meteohub,2013-10-16 16:22:00,
2013-10-16 10:27:00,35.1,17.8,31.72,NE,45,6.0,9.0,49,0.00,,,0.00,meteohub,2013-10-16 16:27:00,
2013-10-16 10:32:00,35.2,17.6,31.72,SE,135,8.0,9.0,48,0.00,,,0.00,meteohub,2013-10-16 16:32:00,
2013-10-16 10:37:00,35.1,16.9,31.72,NW,315,5.0,10.0,47,0.00,,,0.00,meteohub,2013-10-16 16:37:00,
2013-10-16 10:42:00,35.4,17.6,31.72,NW,315,8.0,10.0,48,0.01,,,0.01,meteohub,2013-10-16 16:42:00,
2013-10-16 10:47:00,35.6,16.9,31.72,SW,225,4.0,8.0,46,0.01,,,0.01,meteohub,2013-10-16 16:47:00,
2013-10-16 10:52:00,35.6,16.3,31.72,NNW,338,6.0,9.0,45,0.01,,,0.01,meteohub,2013-10-16 16:52:00,
2013-10-16 10:57:00,35.4,17.2,31.71,North,0,7.0,9.0,47,0.01,,,0.01,meteohub,2013-10-16 16:57:00,
2013-10-16 11:02:00,35.6,16.3,31.71,North,0,10.0,10.0,45,0.01,,,0.01,meteohub,2013-10-16 17:02:00,
2013-10-16 11:07:00,36.0,15.6,31.71,South,180,7.0,10.0,43,0.01,,,0.01,meteohub,2013-10-16 17:07:00,
2013-10-16 11:12:00,36.1,15.8,31.72,East,90,6.0,10.0,43,0.01,,,0.01,meteohub,2013-10-16 17:12:00,
2013-10-16 11:17:00,36.3,16.0,31.72,North,0,11.0,12.0,43,0.01,,,0.01,meteohub,2013-10-16 17:17:00,
2013-10-16 11:22:00,36.5,16.2,31.72,North,0,12.0,12.0,43,0.01,,,0.01,meteohub,2013-10-16 17:22:00,
2013-10-16 11:27:00,36.5,16.2,31.71,NNE,23,4.0,12.0,43,0.01,,,0.01,meteohub,2013-10-16 17:27:00,
2013-10-16 11:32:00,36.7,16.3,31.71,NW,315,7.0,13.0,43,0.01,,,0.01,meteohub,2013-10-16 17:32:00,
2013-10-16 11:37:00,36.0,15.1,31.71,North,0,8.0,13.0,42,0.01,,,0.01,meteohub,2013-10-16 17:37:00,
2013-10-16 11:42:00,35.4,15.1,31.71,West,270,4.0,13.0,43,0.00,,,0.01,meteohub,2013-10-16 17:42:00,
2013-10-16 11:47:00,36.3,15.4,31.71,West,270,8.0,13.0,42,0.00,,,0.01,meteohub,2013-10-16 17:47:00,
2013-10-16 11:52:00,36.3,14.9,31.71,NW,315,5.0,13.0,41,0.00,,,0.01,meteohub,2013-10-16 17:52:00,
2013-10-16 11:57:00,36.9,16.0,31.71,South,180,6.0,13.0,42,0.00,,,0.01,meteohub,2013-10-16 17:57:00,
2013-10-16 12:02:00,36.7,15.3,31.71,NE,45,10.0,13.0,41,0.00,,,0.01,meteohub,2013-10-16 18:02:00,
2013-10-16 12:07:00,36.7,15.3,31.71,NE,45,10.0,12.0,41,0.00,,,0.01,meteohub,2013-10-16 18:07:00,
2013-10-16 12:12:00,38.3,19.8,31.71,NNE,23,6.0,11.0,47,0.00,,,0.01,meteohub,2013-10-16 18:12:00,
2013-10-16 12:17:00,39.0,19.9,31.71,West,270,11.0,11.0,46,0.00,,,0.01,meteohub,2013-10-16 18:17:00,
2013-10-16 12:22:00,38.8,19.4,31.72,SW,225,8.0,11.0,45,0.00,,,0.01,meteohub,2013-10-16 18:22:00,
2013-10-16 12:27:00,38.7,18.7,31.71,NE,45,10.0,11.0,44,0.00,,,0.01,meteohub,2013-10-16 18:27:00,
2013-10-16 12:29:00,38.5,19.0,31.71,East,90,4.0,11.0,45,0.00,,,0.01,meteohub,2013-10-16 18:29:00,
2013-10-16 12:34:00,38.5,19.0,31.71,West,270,4.0,15.0,45,0.00,,,0.01,meteohub,2013-10-16 18:34:00,
2013-10-16 12:39:00,38.7,19.2,31.71,ENE,68,9.0,15.0,45,0.00,,,0.01,meteohub,2013-10-16 18:39:00,
2013-10-16 12:45:00,38.7,19.2,31.71,NW,315,8.0,15.0,45,0.00,,,0.01,meteohub,2013-10-16 18:45:00,
2013-10-16 12:50:00,39.2,19.0,31.71,East,90,2.0,13.0,44,0.00,,,0.01,meteohub,2013-10-16 18:50:00,
2013-10-16 12:55:00,39.2,19.0,31.71,SW,225,4.0,11.0,44,0.00,,,0.01,meteohub,2013-10-16 18:55:00,
2013-10-16 13:00:00,38.1,18.7,31.71,NW,315,8.0,11.0,45,0.00,,,0.01,meteohub,2013-10-16 19:00:00,
2013-10-16 13:06:00,37.8,18.3,31.71,West,270,6.0,11.0,45,0.00,,,0.01,meteohub,2013-10-16 19:06:00,
2013-10-16 13:11:00,37.4,18.0,31.70,NNW,338,5.0,9.0,45,0.00,,,0.01,meteohub,2013-10-16 19:11:00,
2013-10-16 13:16:00,37.4,18.0,31.70,NE,45,7.0,13.0,45,0.00,,,0.01,meteohub,2013-10-16 19:16:00,
2013-10-16 13:21:00,37.4,18.0,31.70,NW,315,8.0,13.0,45,0.00,,,0.01,meteohub,2013-10-16 19:21:00,
2013-10-16 13:27:00,36.9,15.4,31.70,West,270,4.0,13.0,41,0.00,,,0.01,meteohub,2013-10-16 19:27:00,
2013-10-16 13:32:00,36.3,13.1,31.70,ESE,113,6.0,9.0,38,0.00,,,0.01,meteohub,2013-10-16 19:32:00,
2013-10-16 13:37:00,35.6,14.2,31.71,West,270,5.0,11.0,41,0.00,,,0.01,meteohub,2013-10-16 19:37:00,
2013-10-16 13:42:00,35.6,14.2,31.70,NW,315,7.0,14.0,41,0.00,,,0.01,meteohub,2013-10-16 19:42:00,
2013-10-16 13:47:00,35.8,14.4,31.70,West,270,5.0,14.0,41,0.00,,,0.01,meteohub,2013-10-16 19:47:00,
2013-10-16 13:52:00,36.7,14.5,31.70,NE,45,8.0,14.0,40,0.00,,,0.01,meteohub,2013-10-16 19:52:00,
2013-10-16 13:57:00,37.8,17.2,31.70,NW,315,11.0,11.0,43,0.00,,,0.01,meteohub,2013-10-16 19:57:00,
2013-10-16 14:02:00,37.9,16.3,31.70,NW,315,8.0,11.0,41,0.00,,,0.01,meteohub,2013-10-16 20:02:00,
2013-10-16 14:07:00,37.9,16.3,31.70,NW,315,8.0,11.0,41,0.00,,,0.01,meteohub,2013-10-16 20:07:00,
2013-10-16 14:12:00,37.0,11.8,31.70,NW,315,9.0,11.0,35,0.00,,,0.01,meteohub,2013-10-16 20:12:00,
2013-10-16 14:17:00,36.3,10.6,31.70,West,270,8.0,12.0,34,0.00,,,0.01,meteohub,2013-10-16 20:17:00,
2013-10-16 14:22:00,36.7,11.7,31.70,North,0,8.0,12.0,35,0.00,,,0.01,meteohub,2013-10-16 20:22:00,
2013-10-16 14:27:00,37.2,12.7,31.70,NW,315,5.0,12.0,36,0.00,,,0.01,meteohub,2013-10-16 20:27:00,
2013-10-16 14:32:00,37.2,12.0,31.70,ENE,68,4.0,11.0,35,0.00,,,0.01,meteohub,2013-10-16 20:32:00,
2013-10-16 14:37:00,37.4,14.7,31.70,NW,315,5.0,9.0,39,0.00,,,0.01,meteohub,2013-10-16 20:37:00,
2013-10-16 14:42:00,36.3,11.8,31.70,NW,315,11.0,12.0,36,0.00,,,0.01,meteohub,2013-10-16 20:42:00,
2013-10-16 14:47:00,36.0,12.2,31.70,NW,315,6.0,12.0,37,0.00,,,0.01,meteohub,2013-10-16 20:47:00,
2013-10-16 14:52:00,36.0,12.2,31.70,NW,315,8.0,11.0,37,0.00,,,0.01,meteohub,2013-10-16 20:52:00,
2013-10-16 14:57:00,36.0,12.2,31.70,West,270,8.0,11.0,37,0.00,,,0.01,meteohub,2013-10-16 20:57:00,
2013-10-16 15:02:00,35.8,13.3,31.70,SW,225,13.0,13.0,39,0.00,,,0.01,meteohub,2013-10-16 21:02:00,
2013-10-16 15:07:00,36.3,13.1,31.71,North,0,10.0,15.0,38,0.00,,,0.01,meteohub,2013-10-16 21:07:00,
2013-10-16 15:12:00,36.7,12.9,31.71,North,0,7.0,15.0,37,0.00,,,0.01,meteohub,2013-10-16 21:12:00,
2013-10-16 15:17:00,37.4,16.3,31.71,South,180,6.0,15.0,42,0.00,,,0.01,meteohub,2013-10-16 21:17:00,
2013-10-16 15:22:00,37.8,16.2,31.71,NW,315,8.0,11.0,41,0.00,,,0.01,meteohub,2013-10-16 21:22:00,
2013-10-16 15:27:00,38.1,15.3,31.71,NW,315,7.0,11.0,39,0.00,,,0.01,meteohub,2013-10-16 21:27:00,
2013-10-16 15:32:00,38.7,14.5,31.71,NW,315,8.0,11.0,37,0.00,,,0.01,meteohub,2013-10-16 21:32:00,
2013-10-16 15:37:00,38.8,14.7,31.71,North,0,4.0,11.0,37,0.00,,,0.01,meteohub,2013-10-16 21:37:00,
2013-10-16 15:42:00,39.2,14.5,31.71,NW,315,6.0,13.0,36,0.00,,,0.01,meteohub,2013-10-16 21:42:00,
2013-10-16 15:47:00,39.2,14.5,31.71,NW,315,4.0,13.0,36,0.00,,,0.01,meteohub,2013-10-16 21:47:00,
2013-10-16 15:52:00,39.4,14.7,31.71,North,0,7.0,8.0,36,0.00,,,0.01,meteohub,2013-10-16 21:52:00,
2013-10-16 15:57:00,39.4,14.0,31.71,West,270,5.0,8.0,35,0.00,,,0.01,meteohub,2013-10-16 21:57:00,
2013-10-16 16:02:00,39.4,14.0,31.71,NW,315,7.0,8.0,35,0.00,,,0.01,meteohub,2013-10-16 22:02:00,
2013-10-16 16:07:00,39.4,14.0,31.71,NW,315,7.0,8.0,35,0.00,,,0.01,meteohub,2013-10-16 22:07:00,
2013-10-16 16:12:00,38.7,13.3,31.71,West,270,2.0,7.0,35,0.00,,,0.01,meteohub,2013-10-16 22:12:00,
2013-10-16 16:17:00,38.8,13.5,31.71,West,270,8.0,8.0,35,0.00,,,0.01,meteohub,2013-10-16 22:17:00,
2013-10-16 16:22:00,38.3,13.1,31.71,North,0,4.0,8.0,35,0.00,,,0.01,meteohub,2013-10-16 22:22:00,
2013-10-16 16:27:00,37.8,13.8,31.71,NW,315,10.0,10.0,37,0.00,,,0.01,meteohub,2013-10-16 22:27:00,
2013-10-16 16:32:00,37.4,13.5,31.71,West,270,5.0,10.0,37,0.00,,,0.01,meteohub,2013-10-16 22:32:00,
2013-10-16 16:37:00,36.7,10.2,31.71,West,270,4.0,10.0,33,0.00,,,0.01,meteohub,2013-10-16 22:37:00,
2013-10-16 16:42:00,36.1,9.9,31.71,NW,315,4.0,10.0,33,0.00,,,0.01,meteohub,2013-10-16 22:42:00,
2013-10-16 16:47:00,35.8,9.5,31.71,SSW,203,3.0,10.0,33,0.00,,,0.01,meteohub,2013-10-16 22:47:00,
2013-10-16 16:52:00,35.6,10.0,31.71,West,270,7.0,8.0,34,0.00,,,0.01,meteohub,2013-10-16 22:52:00,
2013-10-16 16:57:00,35.2,10.9,31.71,West,270,5.0,8.0,36,0.00,,,0.01,meteohub,2013-10-16 22:57:00,
2013-10-16 17:02:00,35.1,10.8,31.71,SW,225,5.0,8.0,36,0.00,,,0.01,meteohub,2013-10-16 23:02:00,
2013-10-16 17:07:00,34.9,11.3,31.72,West,270,4.0,8.0,37,0.00,,,0.01,meteohub,2013-10-16 23:07:00,
2013-10-16 17:12:00,34.7,11.7,31.72,NW,315,8.0,8.0,38,0.00,,,0.01,meteohub,2013-10-16 23:12:00,
2013-10-16 17:17:00,34.5,11.5,31.72,SW,225,4.0,8.0,38,0.00,,,0.01,meteohub,2013-10-16 23:17:00,
2013-10-16 17:22:00,34.5,11.5,31.72,NE,45,4.0,8.0,38,0.00,,,0.01,meteohub,2013-10-16 23:22:00,
2013-10-16 17:27:00,34.3,11.3,31.72,West,270,3.0,8.0,38,0.00,,,0.01,meteohub,2013-10-16 23:27:00,
2013-10-16 17:32:00,34.2,11.8,31.72,North,0,3.0,4.0,39,0.00,,,0.01,meteohub,2013-10-16 23:32:00,
2013-10-16 17:37:00,33.8,11.5,31.72,North,0,2.0,4.0,39,0.00,,,0.01,meteohub,2013-10-16 23:37:00,
2013-10-16 17:42:00,33.4,11.7,31.72,SSW,203,2.0,3.0,40,0.00,,,0.01,meteohub,2013-10-16 23:42:00,
2013-10-16 17:47:00,33.1,12.6,31.72,West,270,2.0,3.0,42,0.00,,,0.01,meteohub,2013-10-16 23:47:00,
2013-10-16 17:52:00,32.5,12.6,31.72,NW,315,2.0,3.0,43,0.00,,,0.01,meteohub,2013-10-16 23:52:00,
2013-10-16 17:57:00,32.0,12.0,31.72,NW,315,3.0,3.0,43,0.00,,,0.01,meteohub,2013-10-16 23:57:00,
2013-10-16 18:02:00,31.6,12.2,31.73,West,270,2.0,4.0,44,0.00,,,0.01,meteohub,2013-10-17 00:02:00,
2013-10-16 18:07:00,31.6,12.2,31.73,West,270,2.0,4.0,44,0.00,,,0.00,meteohub,2013-10-17 00:07:00,
2013-10-16 18:12:00,30.7,11.8,31.73,SW,225,1.0,4.0,45,0.00,,,0.00,meteohub,2013-10-17 00:12:00,
2013-10-16 18:17:00,30.4,12.0,31.73,SW,225,3.0,3.0,46,0.00,,,0.00,meteohub,2013-10-17 00:17:00,
2013-10-16 18:22:00,30.0,12.2,31.73,SW,225,2.0,3.0,47,0.00,,,0.00,meteohub,2013-10-17 00:22:00,
2013-10-16 18:27:00,29.7,12.4,31.73,NE,45,1.0,3.0,48,0.00,,,0.00,meteohub,2013-10-17 00:27:00,
2013-10-16 18:32:00,29.3,12.6,31.73,NW,315,4.0,4.0,49,0.00,,,0.00,meteohub,2013-10-17 00:32:00,
2013-10-16 18:37:00,29.1,12.7,31.73,NW,315,2.0,4.0,50,0.00,,,0.00,meteohub,2013-10-17 00:37:00,
2013-10-16 18:42:00,28.9,12.6,31.74,SW,225,2.0,4.0,50,0.00,,,0.00,meteohub,2013-10-17 00:42:00,
2013-10-16 18:47:00,28.6,12.7,31.74,NE,45,4.0,4.0,51,0.00,,,0.00,meteohub,2013-10-17 00:47:00,
2013-10-16 18:52:00,28.4,13.1,31.74,West,270,2.0,4.0,52,0.00,,,0.00,meteohub,2013-10-17 00:52:00,
2013-10-16 18:57:00,28.4,13.1,31.74,SW,225,2.0,4.0,52,0.00,,,0.00,meteohub,2013-10-17 00:57:00,
2013-10-16 19:02:00,28.2,11.5,31.74,NW,315,2.0,4.0,49,0.00,,,0.00,meteohub,2013-10-17 01:02:00,
2013-10-16 19:07:00,28.0,11.3,31.74,NW,315,2.0,4.0,49,0.00,,,0.00,meteohub,2013-10-17 01:07:00,
2013-10-16 19:12:00,28.0,11.8,31.74,NNW,338,3.0,4.0,50,0.00,,,0.00,meteohub,2013-10-17 01:12:00,
2013-10-16 19:17:00,27.9,12.0,31.75,SW,225,2.0,4.0,51,0.00,,,0.00,meteohub,2013-10-17 01:17:00,
2013-10-16 19:22:00,27.7,11.8,31.75,NE,45,1.0,4.0,51,0.00,,,0.00,meteohub,2013-10-17 01:22:00,
2013-10-16 19:27:00,27.5,11.7,31.75,South,180,1.0,4.0,51,0.00,,,0.00,meteohub,2013-10-17 01:27:00,
2013-10-16 19:32:00,27.3,11.7,31.75,NW,315,2.0,3.0,51,0.00,,,0.00,meteohub,2013-10-17 01:32:00,
2013-10-16 19:37:00,27.1,11.8,31.75,SE,135,1.0,3.0,52,0.00,,,0.00,meteohub,2013-10-17 01:37:00,
2013-10-16 19:42:00,27.0,11.7,31.75,SE,135,0.0,3.0,52,0.00,,,0.00,meteohub,2013-10-17 01:42:00,
2013-10-16 19:47:00,27.0,11.7,31.75,West,270,0.0,4.0,52,0.00,,,0.00,meteohub,2013-10-17 01:47:00,
2013-10-16 19:52:00,26.8,11.5,31.75,East,90,0.0,4.0,52,0.00,,,0.00,meteohub,2013-10-17 01:52:00,
2013-10-16 19:57:00,26.6,11.8,31.75,ENE,68,0.0,4.0,53,0.00,,,0.00,meteohub,2013-10-17 01:57:00,
2013-10-16 20:02:00,26.4,12.0,31.75,East,90,0.0,2.0,54,0.00,,,0.00,meteohub,2013-10-17 02:02:00,
2013-10-16 20:07:00,26.4,12.0,31.75,East,90,0.0,2.0,54,0.00,,,0.00,meteohub,2013-10-17 02:07:00,
2013-10-16 20:12:00,25.9,11.5,31.75,NW,315,2.0,2.0,54,0.00,,,0.00,meteohub,2013-10-17 02:12:00,
2013-10-16 20:17:00,25.7,11.8,31.75,SW,225,0.0,2.0,55,0.00,,,0.00,meteohub,2013-10-17 02:17:00,
2013-10-16 20:22:00,25.3,11.5,31.75,SW,225,0.0,2.0,55,0.00,,,0.00,meteohub,2013-10-17 02:22:00,
2013-10-16 20:27:00,25.2,11.7,31.75,North,0,0.0,2.0,56,0.00,,,0.00,meteohub,2013-10-17 02:27:00,
2013-10-16 20:32:00,25.0,11.5,31.75,North,0,0.0,1.0,56,0.00,,,0.00,meteohub,2013-10-17 02:32:00,
2013-10-16 20:37:00,24.8,11.7,31.75,South,180,0.0,1.0,57,0.00,,,0.00,meteohub,2013-10-17 02:37:00,
2013-10-16 20:42:00,24.4,11.8,31.75,NW,315,0.0,1.0,58,0.00,,,0.00,meteohub,2013-10-17 02:42:00,
2013-10-16 20:47:00,24.4,12.2,31.76,South,180,0.0,2.0,59,0.00,,,0.00,meteohub,2013-10-17 02:47:00,
2013-10-16 20:52:00,24.3,12.0,31.76,SW,225,0.0,2.0,59,0.00,,,0.00,meteohub,2013-10-17 02:52:00,
2013-10-16 20:57:00,24.1,12.2,31.76,South,180,1.0,2.0,60,0.00,,,0.00,meteohub,2013-10-17 02:57:00,
2013-10-16 21:02:00,23.7,11.8,31.76,South,180,0.0,2.0,60,0.00,,,0.00,meteohub,2013-10-17 03:02:00,
2013-10-16 21:07:00,23.7,12.2,31.76,East,90,0.0,2.0,61,0.00,,,0.00,meteohub,2013-10-17 03:07:00,
2013-10-16 21:12:00,23.5,12.0,31.76,East,90,0.0,1.0,61,0.00,,,0.00,meteohub,2013-10-17 03:12:00,
2013-10-16 21:17:00,23.2,12.0,31.76,NW,315,2.0,2.0,62,0.00,,,0.00,meteohub,2013-10-17 03:17:00,
2013-10-16 21:22:00,23.0,12.2,31.76,West,270,2.0,2.0,63,0.00,,,0.00,meteohub,2013-10-17 03:22:00,
2013-10-16 21:27:00,23.0,12.2,31.76,South,180,0.0,2.0,63,0.00,,,0.00,meteohub,2013-10-17 03:27:00,
2013-10-16 21:32:00,23.0,12.6,31.76,West,270,0.0,2.0,64,0.00,,,0.00,meteohub,2013-10-17 03:32:00,
2013-10-16 21:37:00,22.8,12.7,31.76,West,270,0.0,2.0,65,0.00,,,0.00,meteohub,2013-10-17 03:37:00,
2013-10-16 21:42:00,22.6,12.7,31.76,NE,45,1.0,1.0,65,0.00,,,0.00,meteohub,2013-10-17 03:42:00,
2013-10-16 21:47:00,22.8,12.7,31.76,West,270,2.0,2.0,65,0.00,,,0.00,meteohub,2013-10-17 03:47:00,
2013-10-16 21:52:00,23.2,12.7,31.76,West,270,2.0,3.0,64,0.00,,,0.00,meteohub,2013-10-17 03:52:00,
2013-10-16 21:57:00,23.5,13.5,31.76,West,270,2.0,3.0,65,0.00,,,0.00,meteohub,2013-10-17 03:57:00,
2013-10-16 22:01:00,23.7,13.3,31.76,NW,315,2.0,3.0,64,0.00,,,0.00,meteohub,2013-10-17 04:01:00,
2013-10-16 22:02:00,23.7,13.3,31.76,NW,315,2.0,3.0,64,0.00,,,0.00,meteohub,2013-10-17 04:02:00,
2013-10-16 22:03:00,23.7,13.3,31.76,NW,315,2.0,3.0,64,0.00,,,0.00,meteohub,2013-10-17 04:03:00,
2013-10-16 22:05:00,23.7,13.3,31.77,NW,315,2.0,3.0,64,0.00,,,0.00,meteohub,2013-10-17 04:05:00,
2013-10-16 22:10:00,23.9,13.5,31.76,WSW,248,2.0,2.0,64,0.00,,,0.00,meteohub,2013-10-17 04:10:00,
2013-10-16 22:16:00,23.7,13.3,31.77,NE,45,2.0,2.0,64,0.00,,,0.00,meteohub,2013-10-17 04:16:00,
2013-10-16 22:21:00,23.5,13.1,31.77,NW,315,2.0,2.0,64,0.00,,,0.00,meteohub,2013-10-17 04:21:00,
2013-10-16 22:26:00,23.4,12.9,31.77,NW,315,1.0,2.0,64,0.00,,,0.00,meteohub,2013-10-17 04:26:00,
2013-10-16 22:31:00,23.0,12.6,31.76,West,270,2.0,2.0,64,0.00,,,0.00,meteohub,2013-10-17 04:31:00,
2013-10-16 22:36:00,22.6,12.7,31.76,West,270,2.0,2.0,65,0.00,,,0.00,meteohub,2013-10-17 04:36:00,
2013-10-16 22:41:00,22.3,12.4,31.76,West,270,2.0,2.0,65,0.00,,,0.00,meteohub,2013-10-17 04:41:00,
2013-10-16 22:47:00,22.3,12.4,31.76,NW,315,0.0,3.0,65,0.00,,,0.00,meteohub,2013-10-17 04:47:00,
2013-10-16 22:52:00,22.1,12.6,31.76,West,270,1.0,4.0,66,0.00,,,0.00,meteohub,2013-10-17 04:52:00,
2013-10-16 22:57:00,21.9,12.4,31.76,West,270,2.0,4.0,66,0.00,,,0.00,meteohub,2013-10-17 04:57:00,
2013-10-16 23:02:00,22.1,12.7,31.76,NW,315,2.0,4.0,67,0.00,,,0.00,meteohub,2013-10-17 05:02:00,
2013-10-16 23:07:00,22.3,12.9,31.76,West,270,2.0,4.0,67,0.00,,,0.00,meteohub,2013-10-17 05:07:00,
2013-10-16 23:12:00,22.3,12.9,31.76,West,270,3.0,4.0,67,0.00,,,0.00,meteohub,2013-10-17 05:12:00,
2013-10-16 23:17:00,22.5,13.1,31.76,West,270,1.0,4.0,67,0.00,,,0.00,meteohub,2013-10-17 05:17:00,
2013-10-16 23:22:00,22.3,12.9,31.77,West,270,2.0,4.0,67,0.00,,,0.00,meteohub,2013-10-17 05:22:00,
2013-10-16 23:27:00,22.1,12.7,31.76,West,270,3.0,3.0,67,0.00,,,0.00,meteohub,2013-10-17 05:27:00,
2013-10-16 23:32:00,22.3,12.9,31.77,West,270,2.0,3.0,67,0.00,,,0.00,meteohub,2013-10-17 05:32:00,
2013-10-16 23:37:00,22.3,12.9,31.76,NW,315,2.0,3.0,67,0.00,,,0.00,meteohub,2013-10-17 05:37:00,
2013-10-16 23:42:00,22.3,12.9,31.76,NW,315,4.0,4.0,67,0.00,,,0.00,meteohub,2013-10-17 05:42:00,
2013-10-16 23:47:00,22.5,13.1,31.76,West,270,3.0,4.0,67,0.00,,,0.00,meteohub,2013-10-17 05:47:00,
2013-10-16 23:52:00,22.5,13.1,31.76,West,270,3.0,4.0,67,0.00,,,0.00,meteohub,2013-10-17 05:52:00,
2013-10-16 23:57:00,22.3,12.7,31.76,West,270,4.0,4.0,66,0.00,,,0.00,meteohub,2013-10-17 05:57:00,